Location: Newark
(3.0500°N, 36.0167°E)
Time: 15:11:07
(UTC+00:00)

Transit 2A Rocket - Pass Details

Date: 28 August 2019
Orbit: 592 x 911 km, 66.7° (Epoch: 22 September)

Event Time Altitude Azimuth Distance (km) Brightness Sun altitude
Rises 02:43:12 0° 310° (NW) 2,813 - -12.8°
Reaches altitude 10° 02:46:08 10° 288° (WNW) 1,921 - -12.1°
Exits shadow 02:48:30 16° 255° (WSW) 1,579 6.0 -11.5°
Maximum altitude 02:48:48 16° 250° (WSW) 1,576 6.0 -11.4°
Drops below altitude 10° 02:51:32 10° 211° (SSW) 1,969 6.8 -10.7°
Sets 02:54:37 0° 189° (S) 2,921 7.8 -10.0°
